Location: Unspecified
(0.0000°N, 0.0000°E)
Time: 03:05:00
(UTC+00:00)

N. Korean satellite - Pass Details

Date: 28 January 2023
Orbit: 408 x 444 km, 97.3° (Epoch: 27 January)

Event Time Altitude Azimuth Distance (km) Brightness Sun altitude
Rises 05:12:30 0° 1° (N) 2,369 9.9 -14.3°
Reaches altitude 10° 05:14:32 10° 354° (N) 1,514 8.8 -13.8°
Maximum altitude 05:17:38 43° 281° (W) 612 6.6 -13.1°
Drops below altitude 10° 05:20:47 10° 208° (SSW) 1,541 9.0 -12.3°
Sets 05:22:53 0° 201° (SSW) 2,417 10.1 -11.9°
